1537171200.33,38050,19.25,74678.5,16.19,-10.63,-11.15,0,*4C
1537171201.57,38051,19.25,74678.8,16.19,-10.31,-10.79,0,*41
1537171202.8,38052,19.25,74676.3,16.21,-10.45,-10.89,0,*45
1537171204.03,38053,19.25,74676.3,16.21,-10.49,-10.97,0,*47
1537171205.24,38054,19.25,74674.5,16.23,-10.31,-10.85,0,*4E
1537171206.47,38055,19.25,74676.3,16.23,-10.45,-11.07,0,*47
1537171207.71,38056,19.25,74676.5,16.23,-10.57,-11.07,0,*47
1537171208.94,38057,19.25,74676.8,16.23,-10.53,-11.07,0,*42
1537171210.18,38058,19.25,74676.8,16.23,-11.23,-11.89,0,*4D
1537171211.42,38059,19.25,74678.0,16.27,-11.85,-12.29,0,*4D
1537171212.66,38060,19.25,74678.0,16.23,-10.93,-11.55,0,*4D
1537171213.92,38061,19.25,74678.3,16.23,-10.71,-11.37,0,*44
1537171215.18,38062,19.25,74678.3,16.23,-11.29,-11.89,0,*4E
1537171216.45,38063,19.25,74676.3,16.23,-11.55,-12.07,0,*41
1537171217.68,38064,19.31,74682.0,16.27,-10.79,-11.45,0,*48
1537171218.89,38065,19.25,74676.3,16.23,-10.57,-11.11,0,*40
1537171220.13,38066,19.31,74680.3,16.27,-10.89,-11.51,0,*40
1537171221.39,38067,19.25,74676.8,16.27,-10.63,-11.07,0,*46
1537171222.63,38068,19.25,74676.8,16.29,-10.35,-10.89,0,*43
1537171223.92,38069,19.25,74678.5,16.29,-10.79,-11.37,0,*4E
1537171225.15,38070,19.25,74680.8,16.31,-10.89,-11.55,0,*44
1537171226.38,38071,19.25,74676.0,16.31,-11.15,-11.81,0,*48
1537171227.62,38072,19.31,74678.8,16.31,-11.67,-12.25,0,*43
1537171228.91,38073,19.31,74682.5,16.29,-12.15,-12.71,0,*4C
1537171230.12,38074,19.31,74680.8,16.27,-10.93,-11.45,0,*4D
1537171231.34,38075,19.25,74676.0,16.27,-11.45,-12.03,0,*47
1537171232.59,38076,19.31,74676.3,16.27,-10.67,-11.23,0,*44
1537171233.82,38077,19.31,74676.5,16.27,-11.23,-11.85,0,*48
1537171235.09,38078,19.31,74678.3,16.27,-11.07,-11.59,0,*40
1537171236.35,38079,19.25,74678.5,16.29,-10.63,-11.11,0,*40
1537171237.59,38080,19.31,74676.8,16.31,-10.97,-11.59,0,*48
1537171238.85,38081,19.25,74678.8,16.31,-11.07,-11.67,0,*4C
1537171240.09,38082,19.25,74680.0,16.31,-10.63,-11.19,0,*45
1537171241.33,38083,19.25,74678.5,16.31,-11.01,-11.67,0,*48
1537171242.59,38084,19.31,74676.3,16.29,-10.85,-11.51,0,*4E
1537171243.87,38085,19.31,74678.3,16.29,-10.75,-11.37,0,*40
1537171245.13,38086,19.25,74678.8,16.31,-11.59,-12.11,0,*42
1537171246.39,38087,19.31,74678.3,16.31,-11.37,-12.11,0,*4B
1537171247.66,38088,19.31,74680.0,16.29,-12.21,-12.83,0,*42
1537171248.92,38089,19.25,74676.5,16.29,-11.63,-12.21,0,*4E
1537171250.18,38090,19.31,74676.3,16.31,-11.37,-11.97,0,*40
1537171251.46,38091,19.31,74680.5,16.29,-11.37,-11.97,0,*48
1537171252.75,38092,19.31,74680.5,16.29,-11.07,-11.73,0,*42
1537171253.98,38093,19.31,74678.0,16.29,-10.53,-11.11,0,*47
1537171255.22,38094,19.31,74682.3,16.31,-10.19,-10.63,0,*43
1537171256.42,38095,19.31,74680.5,16.31,-10.35,-10.85,0,*44
1537171257.66,38096,19.31,74676.5,16.31,-10.23,-10.75,0,*4F
1537171258.92,38097,19.25,74678.3,16.33,-10.85,-11.51,0,*47
1537171260.18,38098,19.25,74678.3,16.33,-10.57,-11.29,0,*48
1537171261.47,38099,19.31,74676.3,16.33,-11.63,-12.35,0,*41
1537171262.73,38100,19.31,74680.0,16.37,-11.23,-11.89,0,*44
1537171264.0,38101,19.31,74676.5,16.33,-11.23,-11.89,0,*41
1537171265.26,38102,19.31,74678.8,16.33,-11.15,-11.89,0,*47
1537171266.5,38103,19.31,74680.5,16.33,-11.41,-12.21,0,*46
1537171267.76,38104,19.31,74680.5,16.29,-11.73,-12.39,0,*42
1537171269.02,38105,19.31,74680.8,16.29,-11.85,-12.43,0,*47
1537171270.31,38106,19.31,74678.3,16.29,-11.59,-12.15,0,*46
1537171271.59,38107,19.31,74682.0,16.29,-11.73,-12.35,0,*4D
1537171272.83,38108,19.31,74676.0,16.27,-11.77,-12.43,0,*49
1537171274.07,38109,19.31,74676.5,16.27,-11.51,-12.21,0,*48
1537171275.33,38110,19.31,74676.3,16.29,-11.23,-11.89,0,*4A
1537171276.6,38111,19.31,74682.0,16.31,-11.29,-11.85,0,*44
1537171277.83,38112,19.31,74680.3,16.31,-11.59,-12.25,0,*49
1537171279.12,38113,19.31,74682.3,16.29,-11.07,-11.73,0,*4A
1537171280.41,38114,19.31,74676.5,16.29,-11.59,-12.07,0,*46
1537171281.67,38115,19.31,74676.8,16.27,-11.97,-12.61,0,*4B
1537171282.96,38116,19.31,74676.0,16.29,-12.15,-12.83,0,*43
1537171284.2,38117,19.31,74676.5,16.27,-11.63,-12.29,0,*4E
1537171285.47,38118,19.31,74680.8,16.27,-11.63,-12.35,0,*4C
1537171286.7,38119,19.31,74678.8,16.23,-11.81,-12.47,0,*40
1537171287.94,38120,19.31,74676.5,16.27,-11.85,-12.43,0,*4E
1537171289.2,38121,19.25,74676.8,16.23,-11.29,-11.93,0,*43
1537171290.46,38122,19.31,74678.3,16.27,-11.37,-11.97,0,*4F
1537171291.7,38123,19.31,74680.3,16.27,-11.77,-12.47,0,*44
1537171292.93,38124,19.31,74680.8,16.27,-12.43,-13.01,0,*44
1537171294.15,38125,19.31,74678.3,16.27,-12.21,-12.93,0,*4B
1537171295.4,38126,19.31,74678.0,16.23,-12.21,-12.79,0,*48
1537171296.68,38127,19.31,74678.5,16.21,-11.93,-12.65,0,*4C
1537171297.95,38128,19.31,74678.0,16.19,-11.85,-12.35,0,*4A
1537171299.19,38129,19.31,74682.3,16.19,-11.51,-12.21,0,*47
1537171300.45,38130,19.31,74678.5,16.19,-11.85,-12.57,0,*47
1537171301.73,38131,19.31,74678.0,16.21,-11.55,-12.15,0,*46
1537171302.97,38132,19.31,74678.3,16.19,-11.59,-12.21,0,*45
1537171304.23,38133,19.31,74678.5,16.19,-11.89,-12.57,0,*48
1537171305.5,38134,19.31,74678.0,16.19,-12.07,-12.61,0,*4F
1537171306.74,38135,19.31,74678.0,16.19,-12.21,-12.83,0,*46
1537171307.99,38136,19.31,74678.5,16.19,-11.63,-12.29,0,*40
1537171309.25,38137,19.31,74678.3,16.19,-11.73,-12.35,0,*4D
1537171310.54,38138,19.31,74680.3,16.21,-12.07,-12.79,0,*41
1537171311.77,38139,19.31,74678.5,16.19,-11.77,-12.43,0,*46
1537171313.06,38140,19.31,74676.0,16.17,-11.89,-12.61,0,*47
1537171314.34,38141,19.31,74678.8,16.17,-11.89,-12.61,0,*46
1537171315.6,38142,19.31,74678.3,16.17,-11.77,-12.39,0,*49
1537171316.88,38143,19.31,74676.3,16.17,-11.89,-12.53,0,*45
1537171318.14,38144,19.31,74676.5,16.17,-11.77,-12.25,0,*42
1537171319.38,38145,19.31,74676.8,16.17,-12.21,-12.89,0,*45
1537171320.64,38146,19.31,74676.3,16.17,-11.63,-12.25,0,*45
1537171321.93,38147,19.31,74678.3,16.17,-11.07,-11.67,0,*43
1537171323.19,38148,19.31,74680.5,16.15,-10.79,-11.51,0,*43
1537171324.45,38149,19.31,74678.8,16.17,-10.79,-11.41,0,*41
1537171325.72,38150,19.31,74676.0,16.19,-11.07,-11.63,0,*4F
1537171326.96,38151,19.31,74682.0,16.21,-10.35,-10.89,0,*40
1537171328.19,38152,19.31,74680.0,16.21,-10.57,-11.11,0,*47
1537171329.42,38153,19.31,74678.8,16.23,-10.85,-11.51,0,*4F
1537171330.65,38154,19.31,74676.3,16.23,-11.15,-11.67,0,*45
1537171331.89,38155,19.31,74678.0,16.27,-10.63,-11.23,0,*40
1537171333.14,38156,19.31,74680.8,16.27,-10.67,-11.11,0,*46
1537171334.37,38157,19.31,74676.3,16.27,-10.53,-11.07,0,*47
1537171335.58,38158,19.31,74678.5,16.27,-10.49,-11.01,0,*45
1537171336.79,38159,19.31,74676.3,16.27,-10.53,-11.23,0,*4F
1537171338.07,38160,19.31,74678.0,16.29,-10.63,-11.33,0,*49
1537171339.33,38161,19.31,74676.8,16.29,-10.53,-11.07,0,*4C
1537171340.54,38162,19.31,74680.0,16.31,-10.49,-11.01,0,*4B
1537171341.77,38163,19.31,74680.8,16.31,-10.49,-11.07,0,*4C
1537171343.01,38164,19.31,74676.3,16.31,-10.19,-10.71,0,*4E
1537171344.28,38165,19.31,74678.3,16.33,-10.15,-10.67,0,*46
1537171345.56,38166,19.31,74680.0,16.37,-10.79,-11.51,0,*4F
1537171346.82,38167,19.31,74676.8,16.33,-11.11,-11.67,0,*40
1537171348.1,38168,19.31,74678.5,16.37,-10.79,-11.37,0,*41
1537171349.36,38169,19.31,74678.3,16.37,-10.93,-11.51,0,*44
1537171350.61,38170,19.31,74678.5,16.39,-10.79,-11.51,0,*46
1537171351.84,38171,19.31,74676.8,16.37,-10.53,-10.93,0,*4E
1537171353.08,38172,19.31,74680.3,16.33,-10.45,-10.97,0,*4A
1537171354.31,38173,19.31,74676.5,16.39,-11.11,-11.73,0,*4A
1537171355.54,38174,19.31,74678.5,16.39,-11.19,-11.85,0,*4C
1537171356.8,38175,19.31,74680.8,16.41,-10.93,-11.59,0,*40
1537171358.06,38176,19.31,74676.0,16.41,-10.45,-11.07,0,*43
1537171359.29,38177,19.31,74676.3,16.41,-10.35,-10.89,0,*42
1537171360.53,38178,19.31,74676.0,16.41,-10.31,-10.93,0,*42
1537171361.76,38179,19.31,74678.3,16.41,-10.49,-11.15,0,*43
1537171363.02,38180,19.31,74678.0,16.41,-10.49,-11.07,0,*46
1537171364.27,38181,19.31,74678.5,16.43,-10.75,-11.33,0,*4D
1537171365.53,38182,19.31,74678.8,16.43,-10.71,-11.33,0,*4A
1537171366.73,38183,19.31,74678.5,16.45,-10.85,-11.41,0,*43
1537171368.0,38184,19.31,74678.5,16.43,-11.07,-11.59,0,*40
1537171369.2,38185,19.31,74678.3,16.43,-10.45,-10.89,0,*4A
1537171370.44,38186,19.31,74678.5,16.43,-10.89,-11.59,0,*45
1537171371.67,38187,19.31,74680.0,16.43,-11.73,-12.39,0,*45
1537171372.91,38188,19.31,74678.0,16.45,-10.97,-11.63,0,*4B
1537171374.12,38189,19.31,74680.8,16.45,-10.53,-11.15,0,*43
1537171375.38,38190,19.31,74680.8,16.45,-10.67,-11.29,0,*43
1537171376.61,38191,19.31,74680.5,16.45,-11.15,-11.81,0,*44
1537171377.84,38192,19.31,74676.3,16.43,-11.19,-11.85,0,*49
1537171379.08,38193,19.31,74680.8,16.45,-11.63,-12.25,0,*4A
1537171380.31,38194,19.31,74680.0,16.45,-11.81,-12.39,0,*4C
1537171381.54,38195,19.31,74682.3,16.43,-12.03,-12.65,0,*4B
1537171382.78,38196,19.31,74678.0,16.43,-11.45,-11.89,0,*48
1537171384.02,38197,19.31,74678.5,16.43,-11.59,-12.29,0,*4D
1537171385.26,38198,19.31,74680.8,16.43,-11.97,-12.39,0,*41
1537171386.49,38199,19.31,74680.8,16.43,-11.73,-12.39,0,*4A
1537171387.73,38200,19.31,74678.0,16.39,-11.41,-11.97,0,*42
1537171388.96,38201,19.31,74678.5,16.39,-11.85,-12.47,0,*45
1537171390.24,38202,19.31,74678.3,16.41,-11.89,-12.57,0,*44
1537171391.48,38203,19.31,74680.5,16.39,-12.21,-12.79,0,*47
1537171392.72,38204,19.31,74678.5,16.39,-12.57,-13.19,0,*46
1537171394.01,38205,19.31,74678.8,16.37,-12.35,-12.79,0,*4A
1537171395.27,38206,19.31,74674.8,16.37,-11.89,-12.47,0,*40
1537171396.53,38207,19.31,74678.8,16.37,-11.77,-12.29,0,*48
1537171397.79,38208,19.31,74678.8,16.37,-11.59,-12.21,0,*43
1537171399.06,38209,19.31,74678.5,16.33,-11.63,-12.21,0,*4F
1537171400.31,38210,19.31,74678.5,16.33,-11.81,-12.47,0,*4B
1537171401.58,38211,19.31,74678.5,16.33,-11.23,-11.93,0,*48
1537171402.87,38212,19.31,74678.3,16.37,-11.07,-11.63,0,*46
1537171404.11,38213,19.31,74676.8,16.33,-10.85,-11.41,0,*48
1537171405.36,38214,19.31,74678.8,16.37,-10.79,-11.45,0,*4C
1537171406.62,38215,19.31,74676.5,16.41,-10.75,-11.41,0,*44
1537171407.86,38216,19.31,74680.0,16.39,-11.51,-12.03,0,*4A
1537171409.09,38217,19.31,74678.3,16.39,-11.51,-12.03,0,*4B
1537171410.35,38218,19.31,74682.8,16.39,-11.59,-12.15,0,*4B
1537171411.58,38219,19.31,74676.5,16.39,-11.85,-12.47,0,*4C
1537171412.84,38220,19.31,74676.5,16.39,-11.73,-12.35,0,*4A
1537171414.07,38221,19.31,74678.8,16.39,-11.89,-12.43,0,*4F
1537171415.33,38222,19.31,74678.0,16.37,-11.77,-12.43,0,*43
1537171416.56,38223,19.31,74676.3,16.37,-12.43,-13.15,0,*44
1537171417.85,38224,19.31,74678.0,16.33,-12.11,-12.79,0,*4B
1537171419.14,38225,19.31,74680.3,16.33,-12.11,-12.75,0,*46
1537171420.4,38226,19.38,74680.8,16.33,-11.81,-12.47,0,*4E
1537171421.65,38227,19.31,74682.0,16.31,-12.57,-13.29,0,*4C
1537171422.85,38228,19.38,74680.8,16.31,-13.15,-13.69,0,*40
1537171424.07,38229,19.31,74676.8,16.31,-12.25,-12.97,0,*43
1537171425.3,38230,19.31,74680.5,16.29,-13.07,-13.73,0,*48
1537171426.54,38231,19.31,74680.3,16.29,-12.29,-12.89,0,*40
1537171427.83,38232,19.31,74678.8,16.29,-12.07,-12.75,0,*4C
1537171429.09,38233,19.31,74678.3,16.27,-12.71,-13.29,0,*4A
1537171430.32,38234,19.31,74680.5,16.29,-12.93,-13.55,0,*44
1537171431.55,38235,19.31,74676.5,16.27,-12.83,-13.47,0,*49
1537171432.76,38236,19.31,74678.8,16.23,-12.39,-13.11,0,*4C
1537171433.99,38237,19.31,74678.8,16.21,-12.43,-13.11,0,*42
1537171435.25,38238,19.31,74676.0,16.21,-12.25,-12.83,0,*47
1537171436.48,38239,19.31,74678.3,16.21,-12.39,-13.11,0,*41
1537171437.69,38240,19.31,74680.5,16.23,-12.25,-12.93,0,*4B
1537171438.95,38241,19.31,74682.0,16.21,-12.53,-13.15,0,*46
1537171440.23,38242,19.31,74682.3,16.21,-12.65,-13.37,0,*40
1537171441.51,38243,19.31,74678.8,16.21,-12.71,-13.37,0,*44
1537171442.73,38244,19.31,74678.5,16.21,-12.39,-13.07,0,*4C
1537171443.97,38245,19.31,74678.3,16.21,-12.29,-12.93,0,*40
1537171445.24,38246,19.38,74682.8,16.19,-12.15,-12.75,0,*4F
1537171446.46,38247,19.31,74682.8,16.19,-12.21,-12.89,0,*4A
1537171447.72,38248,19.38,74682.0,16.19,-11.63,-12.15,0,*45
1537171448.96,38249,19.31,74680.3,16.19,-11.73,-12.43,0,*46
1537171450.22,38250,19.31,74680.5,16.19,-12.11,-12.83,0,*45
1537171451.46,38251,19.31,74676.5,16.19,-11.73,-12.43,0,*4F
1537171452.69,38252,19.31,74682.5,16.19,-11.15,-11.77,0,*48
1537171453.93,38253,19.31,74682.0,16.19,-11.73,-12.47,0,*49
1537171455.19,38254,19.38,74682.3,16.21,-11.67,-12.29,0,*48
1537171456.42,38255,19.31,74680.3,16.19,-11.51,-12.21,0,*4F
1537171457.68,38256,19.31,74682.5,16.21,-11.67,-12.43,0,*46
1537171458.92,38257,19.38,74682.0,16.19,-11.19,-11.73,0,*45
1537171460.17,38258,19.38,74680.8,16.21,-11.73,-12.39,0,*40
1537171461.45,38259,19.31,74680.3,16.21,-11.33,-11.97,0,*42
1537171462.7,38260,19.38,74680.8,16.27,-10.67,-11.11,0,*40
1537171463.94,38261,19.31,74678.5,16.27,-10.67,-11.23,0,*40
1537171465.18,38262,19.31,74678.0,16.27,-10.89,-11.59,0,*4E
1537171466.41,38263,19.31,74678.3,16.27,-10.63,-11.11,0,*47
1537171467.68,38264,19.38,74680.0,16.29,-10.67,-11.23,0,*4B
1537171468.96,38265,19.31,74678.0,16.29,-11.07,-11.77,0,*4C
1537171470.22,38266,19.31,74680.3,16.29,-11.19,-11.85,0,*4D
1537171471.48,38267,19.38,74682.8,16.29,-11.11,-11.73,0,*4D
1537171472.74,38268,19.38,74682.0,16.33,-11.01,-11.55,0,*4C
1537171474.01,38269,19.31,74680.3,16.33,-11.55,-12.25,0,*48
1537171475.27,38270,19.38,74682.8,16.33,-11.77,-12.39,0,*4D
1537171476.5,38271,19.38,74682.8,16.31,-12.03,-12.79,0,*4A
1537171477.77,38272,19.31,74678.3,16.31,-12.11,-12.71,0,*42
1537171479.03,38273,19.31,74678.5,16.31,-11.89,-12.57,0,*45
1537171480.29,38274,19.31,74678.8,16.29,-11.23,-11.77,0,*4A
1537171481.56,38275,19.31,74676.5,16.31,-11.29,-11.93,0,*42
1537171482.82,38276,19.31,74678.5,16.31,-11.55,-12.11,0,*43
1537171484.03,38277,19.38,74680.3,16.31,-11.45,-12.25,0,*44
1537171485.3,38278,19.31,74678.3,16.33,-11.23,-11.93,0,*47
1537171486.54,38279,19.38,74682.5,16.31,-10.75,-11.41,0,*49
1537171487.79,38280,19.31,74678.5,16.33,-11.11,-11.77,0,*4B
1537171489.05,38281,19.38,74680.3,16.33,-10.71,-11.15,0,*49
1537171490.33,38282,19.31,74678.5,16.37,-11.51,-12.15,0,*4E
1537171491.6,38283,19.38,74682.5,16.33,-12.21,-12.83,0,*40
1537171492.89,38284,19.38,74682.3,16.37,-11.33,-11.89,0,*4A
1537171494.14,38285,19.31,74680.5,16.37,-11.37,-12.03,0,*4E
1537171495.43,38286,19.38,74680.3,16.33,-12.11,-12.83,0,*46
1537171496.71,38287,19.38,74680.8,16.33,-12.61,-13.33,0,*4A
1537171497.95,38288,19.38,74682.0,16.33,-12.47,-13.23,0,*40
1537171499.18,38289,19.38,74682.5,16.33,-12.25,-13.07,0,*43
1537171500.43,38290,19.38,74680.3,16.29,-12.21,-12.89,0,*43
1537171501.67,38291,19.38,74686.0,16.29,-12.21,-12.93,0,*49
1537171502.93,38292,19.38,74682.8,16.31,-11.81,-12.53,0,*46
1537171504.17,38293,19.31,74676.3,16.31,-11.67,-12.39,0,*43
1537171505.43,38294,19.38,74680.8,16.29,-11.59,-12.21,0,*49
1537171506.69,38295,19.38,74680.8,16.29,-11.63,-12.43,0,*45
1537171507.93,38296,19.38,74680.3,16.31,-11.55,-12.25,0,*4A
1537171509.14,38297,19.38,74678.5,16.31,-12.39,-13.11,0,*44
1537171510.37,38298,19.31,74678.5,16.31,-11.73,-12.43,0,*40
1537171511.66,38299,19.38,74680.8,16.29,-11.29,-11.93,0,*49
1537171512.92,38300,19.31,74678.5,16.29,-11.89,-12.29,0,*40
1537171514.18,38301,19.38,74682.5,16.31,-11.81,-12.53,0,*4D
1537171515.45,38302,19.38,74676.8,16.29,-11.63,-12.29,0,*46
1537171516.71,38303,19.38,74684.0,16.31,-11.55,-12.15,0,*44
1537171517.94,38304,19.38,74680.0,16.31,-11.41,-11.97,0,*4F
1537171519.21,38305,19.38,74680.8,16.31,-11.89,-12.53,0,*41
1537171520.46,38306,19.38,74680.3,16.31,-11.85,-12.57,0,*4A
1537171521.7,38307,19.38,74682.5,16.31,-12.03,-12.79,0,*4A
1537171522.93,38308,19.38,74682.5,16.31,-12.39,-13.01,0,*42
1537171524.16,38309,19.38,74680.0,16.31,-11.81,-12.29,0,*48
1537171525.42,38310,19.38,74682.3,16.31,-11.29,-11.85,0,*47
1537171526.69,38311,19.38,74682.0,16.31,-11.33,-11.93,0,*4A
1537171527.93,38312,19.38,74680.8,16.31,-11.45,-12.15,0,*45
1537171529.17,38313,19.38,74680.0,16.29,-11.45,-12.21,0,*4A
1537171530.43,38314,19.38,74682.8,16.31,-11.33,-11.97,0,*4B
1537171531.71,38315,19.38,74680.8,16.33,-11.37,-11.97,0,*4C
1537171532.97,38316,19.38,74680.3,16.37,-11.11,-11.73,0,*45
1537171534.25,38317,19.38,74682.8,16.37,-10.67,-11.33,0,*40
1537171535.53,38318,19.38,74680.0,16.37,-10.67,-11.33,0,*4F
1537171536.76,38319,19.38,74680.5,16.37,-9.97,-10.49,0,*75
1537171537.98,38320,19.38,74682.5,16.41,-9.89,-10.35,0,*7A
1537171539.24,38321,19.38,74680.5,16.41,-10.09,-10.75,0,*4F
1537171540.47,38322,19.38,74680.0,16.45,-10.01,-10.67,0,*43
1537171541.71,38323,19.38,74680.8,16.45,-10.27,-10.79,0,*49
1537171542.96,38324,19.38,74680.0,16.47,-9.83,-10.49,0,*79
1537171544.22,38325,19.38,74680.0,16.47,-10.23,-10.79,0,*49
1537171545.46,38326,19.38,74676.5,16.49,-10.23,-10.79,0,*44
1537171546.69,38327,19.38,74680.0,16.47,-10.49,-10.93,0,*43
1537171547.93,38328,19.38,74680.8,16.51,-10.35,-11.01,0,*4A
1537171549.19,38329,19.38,74684.5,16.53,-10.63,-11.29,0,*40
1537171550.39,38330,19.38,74680.8,16.53,-10.45,-11.11,0,*47
1537171551.58,38331,19.38,74680.8,16.53,-9.93,-10.45,0,*75
1537171552.82,38332,19.38,74678.0,16.53,-10.01,-10.67,0,*45
1537171554.08,38333,19.38,74680.0,16.59,-10.01,-10.67,0,*4E
1537171555.3,38334,19.38,74680.0,16.55,-9.93,-10.45,0,*76
1537171556.52,38335,19.38,74682.0,16.61,-9.37,-9.97,0,*49
1537171557.74,38336,19.38,74682.3,16.63,-9.67,-10.31,0,*79
1537171558.99,38337,19.38,74682.8,16.63,-9.61,-10.19,0,*74
1537171560.25,38338,19.38,74678.3,16.63,-10.19,-10.63,0,*41
1537171561.46,38339,19.38,74680.0,16.65,-10.45,-11.01,0,*4A
1537171562.74,38340,19.38,74680.5,16.67,-10.67,-11.51,0,*43
1537171563.97,38341,19.38,74682.5,16.65,-10.85,-11.59,0,*44
1537171565.26,38342,19.38,74680.5,16.67,-11.33,-11.89,0,*44
1537171566.49,38343,19.38,74680.0,16.65,-10.35,-11.07,0,*46
1537171567.78,38344,19.38,74678.3,16.67,-11.07,-11.77,0,*44
1537171569.0,38345,19.38,74682.3,16.65,-10.89,-11.51,0,*44
1537171570.26,38346,19.38,74682.8,16.67,-10.71,-11.45,0,*47
1537171571.52,38347,19.38,74680.0,16.67,-11.11,-11.89,0,*41
1537171572.77,38348,19.38,74680.5,16.65,-11.37,-11.81,0,*40
1537171574.02,38349,19.38,74680.3,16.65,-11.97,-12.65,0,*42
1537171575.3,38350,19.38,74678.8,16.67,-11.89,-12.65,0,*47
1537171576.56,38351,19.38,74682.5,16.67,-11.67,-12.39,0,*4F
1537171577.82,38352,19.38,74682.3,16.67,-12.15,-12.89,0,*41
1537171579.08,38353,19.38,74682.3,16.63,-11.59,-12.39,0,*44
1537171580.31,38354,19.38,74680.5,16.61,-11.01,-11.73,0,*41
1537171581.57,38355,19.38,74682.8,16.63,-11.59,-12.39,0,*42
1537171582.83,38356,19.38,74682.8,16.63,-11.45,-12.11,0,*46
1537171584.06,38357,19.38,74680.5,16.63,-12.29,-12.97,0,*40
1537171585.31,38358,19.38,74680.0,16.61,-12.15,-13.01,0,*4C
1537171586.53,38359,19.38,74684.3,16.61,-11.73,-12.43,0,*49
1537171587.77,38360,19.38,74684.3,16.59,-12.29,-13.07,0,*45
1537171589.02,38361,19.38,74684.0,16.59,-13.01,-13.65,0,*4B
1537171590.25,38362,19.38,74682.0,16.59,-12.43,-13.15,0,*48
1537171591.51,38363,19.38,74682.8,16.55,-11.23,-11.93,0,*4C
1537171592.77,38364,19.38,74680.5,16.59,-11.77,-12.47,0,*4C
1537171594.03,38365,19.38,74680.0,16.55,-11.63,-12.21,0,*44
1537171595.32,38366,19.38,74682.8,16.55,-11.37,-11.93,0,*4C
1537171596.6,38367,19.38,74682.3,16.55,-12.07,-12.71,0,*42
1537171597.86,38368,19.38,74682.3,16.59,-11.77,-12.43,0,*44
1537171599.15,38369,19.38,74682.0,16.55,-11.67,-12.35,0,*49
1537171600.43,38370,19.38,74680.8,16.55,-12.11,-12.79,0,*4B
1537171601.68,38371,19.38,74682.5,16.53,-11.85,-12.65,0,*4F
1537171602.89,38372,19.38,74680.3,16.53,-12.47,-13.19,0,*4B
1537171604.18,38373,19.38,74682.8,16.51,-12.11,-12.83,0,*49
1537171605.45,38374,19.38,74680.5,16.53,-11.93,-12.71,0,*48
1537171606.71,38375,19.38,74680.8,16.51,-11.67,-12.29,0,*4D
1537171607.98,38376,19.38,74680.5,16.51,-11.59,-12.39,0,*42
1537171609.24,38377,19.38,74682.0,16.51,-12.03,-12.75,0,*47
1537171610.53,38378,19.38,74682.5,16.51,-12.57,-13.29,0,*41
1537171611.79,38379,19.38,74680.5,16.47,-11.77,-12.47,0,*4F
1537171613.0,38380,19.38,74680.0,16.49,-12.25,-13.11,0,*41
1537171614.2,38381,19.38,74682.0,16.49,-12.43,-13.23,0,*41
1537171615.5,38382,19.38,74682.3,16.47,-11.93,-12.75,0,*40
1537171616.73,38383,19.38,74680.0,16.49,-11.73,-12.39,0,*49
1537171617.98,38384,19.38,74682.0,16.49,-11.89,-12.57,0,*43
1537171619.22,38385,19.38,74676.8,16.49,-12.03,-12.75,0,*43
1537171620.48,38386,19.38,74680.3,16.47,-11.51,-12.21,0,*4B
1537171621.76,38387,19.38,74682.5,16.47,-11.89,-12.65,0,*4F
1537171623.02,38388,19.38,74684.5,16.47,-12.03,-12.79,0,*4C
1537171624.28,38389,19.38,74682.0,16.47,-11.45,-12.15,0,*46
1537171625.55,38390,19.38,74680.0,16.47,-10.93,-11.63,0,*46
1537171626.8,38391,19.38,74680.5,16.47,-11.19,-11.77,0,*41
1537171628.04,38392,19.38,74680.5,16.49,-11.33,-12.03,0,*44
1537171629.27,38393,19.38,74682.3,16.49,-11.15,-11.85,0,*4C
1537171630.53,38394,19.38,74680.0,16.51,-11.55,-12.29,0,*43
1537171631.79,38395,19.38,74682.8,16.51,-10.89,-11.59,0,*46
1537171633.06,38396,19.38,74682.8,16.51,-10.19,-10.75,0,*43
1537171634.33,38397,19.38,74682.5,16.51,-10.93,-11.67,0,*42
1537171635.56,38398,19.38,74682.3,16.53,-10.97,-11.55,0,*4A
1537171636.8,38399,19.38,74680.0,16.51,-10.49,-11.19,0,*42
1537171638.03,38400,19.38,74682.8,16.53,-10.67,-11.41,0,*46
1537171639.26,38401,19.38,74680.5,16.55,-10.31,-11.11,0,*47
1537171640.52,38402,19.38,74680.8,16.55,-10.85,-11.67,0,*4A
1537171641.8,38403,19.38,74680.8,16.59,-10.71,-11.37,0,*49
1537171643.07,38404,19.38,74682.5,16.59,-10.23,-10.67,0,*4D
1537171644.33,38405,19.38,74686.0,16.59,-10.93,-11.63,0,*42
1537171645.57,38406,19.38,74682.5,16.63,-10.35,-11.01,0,*40
1537171646.77,38407,19.38,74678.8,16.61,-10.23,-10.93,0,*4E
1537171648.0,38408,19.38,74684.0,16.63,-10.23,-10.93,0,*43
1537171649.25,38409,19.38,74682.5,16.63,-10.09,-10.67,0,*41
1537171650.48,38410,19.38,74682.0,16.63,-10.23,-10.93,0,*4A
1537171651.74,38411,19.38,74682.3,16.67,-10.71,-11.45,0,*42
1537171652.99,38412,19.38,74682.0,16.67,-9.97,-10.71,0,*77
1537171654.24,38413,19.38,74682.5,16.67,-10.01,-10.71,0,*41
1537171655.45,38414,19.38,74684.0,16.69,-9.71,-10.35,0,*77
1537171656.66,38415,19.38,74682.0,16.69,-10.23,-10.93,0,*45
1537171657.94,38416,19.38,74680.5,16.71,-10.67,-11.33,0,*44
1537171659.19,38417,19.38,74680.3,16.71,-10.23,-11.07,0,*42
1537171660.43,38418,19.38,74680.5,16.71,-10.31,-10.93,0,*42
1537171661.64,38419,19.38,74680.8,16.75,-9.89,-10.45,0,*77
1537171662.87,38420,19.38,74680.8,16.75,-10.27,-11.01,0,*40
1537171664.1,38421,19.38,74684.8,16.73,-11.23,-11.97,0,*4D
1537171665.36,38422,19.38,74682.8,16.75,-10.57,-11.29,0,*4F
1537171666.58,38423,19.38,74680.5,16.75,-9.93,-10.49,0,*79
1537171667.83,38424,19.38,74686.0,16.75,-10.85,-11.73,0,*49
1537171669.09,38425,19.38,74680.0,16.75,-11.11,-11.85,0,*4D
1537171670.32,38426,19.38,74682.8,16.75,-10.45,-11.11,0,*43
1537171671.54,38427,19.38,74686.3,16.75,-10.85,-11.45,0,*4F
1537171672.83,38428,19.38,74680.8,16.75,-10.71,-11.55,0,*4A
1537171674.06,38429,19.38,74682.8,16.75,-10.31,-11.01,0,*4E
1537171675.34,38430,19.38,74680.5,16.77,-10.67,-11.37,0,*42
1537171676.59,38431,19.38,74684.0,16.77,-10.53,-11.33,0,*40
1537171677.84,38432,19.38,74682.5,16.77,-10.57,-11.37,0,*43
1537171679.07,38433,19.38,74680.8,16.81,-10.31,-11.01,0,*4E
1537171680.3,38434,19.38,74680.5,16.77,-10.45,-11.11,0,*42
1537171681.58,38435,19.38,74682.5,16.81,-11.07,-11.85,0,*40
1537171682.84,38436,19.38,74684.8,16.77,-11.19,-11.93,0,*42
1537171684.12,38437,19.38,74680.5,16.81,-10.79,-11.55,0,*47
1537171685.34,38438,19.38,74682.5,16.77,-10.53,-11.23,0,*48
1537171686.57,38439,19.38,74680.0,16.81,-10.49,-11.19,0,*42
1537171687.82,38440,19.44,74684.5,16.81,-10.09,-10.79,0,*4F
1537171689.03,38441,19.44,74684.5,16.83,-10.31,-11.01,0,*49
1537171690.25,38442,19.38,74680.8,16.83,-9.93,-10.63,0,*7F
1537171691.5,38443,19.44,74682.8,16.85,-10.05,-10.75,0,*48
1537171692.78,38444,19.38,74680.8,16.85,-11.33,-12.07,0,*4C
1537171694.03,38445,19.44,74682.3,16.85,-11.11,-11.81,0,*40
1537171695.28,38446,19.38,74682.3,16.83,-10.71,-11.33,0,*4B
1537171696.51,38447,19.38,74680.8,16.85,-10.35,-11.01,0,*4D
1537171697.74,38448,19.44,74684.8,16.85,-9.79,-10.31,0,*70
1537171698.97,38449,19.44,74684.3,16.87,-9.57,-10.15,0,*79